Regional Weather Roundup
Issued by NWS Green Bay, WI

Home | Current Version | Previous Version | Graphics & Text | Print | Product List | Glossary Off
Versions: 1 2 3 4 5 6 7 8 9 10 11 12 13 14 15 16 17 18 19 20 21 22 23 24 25 26 27 28 29 30 31 32 33 34 35 36 37 38 39 40 41 42 43 44 45 46 47 48 49 50

000
ASUS43 KGRB 031111
RWRGRB

NORTH-CENTRAL AND NORTHEAST WISCONSIN REGIONAL WEATHER ROUNDUP
NATIONAL WEATHER SERVICE GREEN BAY WI
600 AM CDT TUE MAY 03 2016

WIZ005-009-010>012-018-019-031200-
NORTH CENTRAL WISCONSIN

CITY           SKY/WX    TMP DP  RH WIND       PRES   REMARKS
IRONWOOD         N/A     52  32  46 SW8       29.80F
MANITOWISH WTR CLOUDY    32  32 100 CALM      29.86F
ARBOR VITAE    CLEAR     39  33  78 CALM      29.86F
EAGLE RIVER    PTCLDY    32  32  98 W6        29.85F
LAND O LAKES   PTCLDY    31  31  99 CALM      29.86S
RHINELANDER    CLEAR     35  30  82 W7        29.88F
PHILLIPS       CLOUDY    34  33  99 CALM      29.88F
ANTIGO         CLEAR     35  33  93 CALM      29.90S
TOMAHAWK       CLEAR     31  29  93 CALM      29.89F
MERRILL        CLEAR     32  30  93 CALM      29.91S
$$

WIZ013-073-031200-
NORTHEAST WISCONSIN

CITY           SKY/WX    TMP DP  RH WIND       PRES   REMARKS
IRON MOUNTAIN  CLEAR     32  28  85 CALM      29.83F
MARINETTE      CLEAR     45  34  65 W6        29.86F
OCONTO         CLEAR     40  37  90 CALM      29.87F
$$

WIZ017-030-035>037-045-031200-
CENTRAL WISCONSIN

CITY           SKY/WX    TMP DP  RH WIND       PRES   REMARKS
MEDFORD        CLEAR     43  34  69 SW5       29.90F
WAUSAU         CLEAR     47  35  63 NW6       29.89F
MOSINEE        CLEAR     43  34  70 W6        29.92S
MARSHFIELD     CLEAR     43  34  70 W7        29.91F
WISC RAPIDS    CLEAR     35  32  88 CALM      29.93F
STEVENS POINT    N/A     32  31  96 CALM      29.93S
WAUPACA        CLEAR     41  33  74 CALM      29.92S
SHAWANO        CLEAR     43  35  73 SW3       29.89F
CLINTONVILLE   CLEAR     37  32  81 S3        29.90S
WAUTOMA        CLEAR     34  31  88 CALM      29.93F
$$

WIZ038-039-048-051-031200-
FOX VALLEY

CITY           SKY/WX    TMP DP  RH WIND       PRES   REMARKS
NWS GREEN BAY  CLEAR     44  37  76 SW3       29.90F
APPLETON       PTCLDY    43  34  70 W8        29.89F
OSHKOSH        CLEAR     45  34  65 W6        29.91F
FOND DU LAC    CLEAR     44  35  70 SW7       29.93F
$$

WIZ022-050-052-031200-
EAST CENTRAL WISCONSIN

CITY           SKY/WX    TMP DP  RH WIND       PRES   REMARKS
EPHRAIM        FAIR      46  37  70 SW7       29.85F
STURGEON BAY   CLEAR     45  34  65 SW7       29.90F
MANITOWOC      CLEAR     46  33  60 W8        29.91F
SHEBOYGAN      CLEAR     40  31  70 SW7       29.92F
$$

LMZ563-521-522-541>543-031200-
LAKESHORE

STATION/POSITION TIME  TEMP    WIND        PRES    VSBY  WAVE
                       AIR SEA DIR/SP/G                  HT/PER
                 (UTC) (F)     (DEG/KT/KT) (MB)    (MI)  (FT/S)
SHEBOYGAN LKSHOR 1100   47     220/  7/  8 1013.8F
KEWAUNEE LKSHORE 1000   47     270/  6/  9 1011.9F
ALGOMA MARINA    1000             CALM       N/A
NORTHPORT PIER   1000   48     210/  4/  9 1011.5F
N MID LAKE BUOY  1050   42 38  180/ 10/ 12 1011.2F         0
CHAMBERS ISLAND  1000   47     190/  6/ 11 1011.9F
MENOMINEE LKSHOR 1000   48     220/  7/  9 1010.6F
$$




USA.gov is the U.S. government's official web portal to all federal, state and local government web resources and services.